Track LAPAN-TUBSAT now! 10-day predictions LAPAN-TUBSAT is classified as:
1 29709U 07001A 26221.24844461 .00000257 00000-0 36000-4 0 9998 2 29709 98.1379 221.6776 0012774 19.7425 340.4282 14.86000413 59033